sat.trackr.live / text

‹ back to catalog

EAGLET-I

NORAD 43790 · 2018-099AJ

PAYLOAD ACTIVE UNKNOWN

§ Identity

Operator
Country
IT
Launch date
2018-12-03
Launch site
AFWTR
Launch vehicle
Mass (kg)
RCS (m²)

External: N2YO · Heavens-Above · Gunter

§ Orbital elements

Epoch: 2026-09-19T22:36:28.946016Z

Period
95.14 min
Inclination
97.4138°
Eccentricity
0.0011528
Mean motion
15.13535269 rev/d
Perigee alt
517.5 km
Apogee alt
533.4 km
Semi-major
6,903.6 km
B*
1.4977e-4
RAAN
310.0893°
Arg perigee
26.3027°
Mean anomaly
333.8788°
Rev number
42,666

§ Raw data

EAGLET-I1 43790U 18099AJ  26262.94200169  .00002623  00000+0  14977-3 0  99922 43790  97.4138 310.0893 0011528  26.3027 333.8788 15.13535269426662

JSON: /api/v1/satellites/43790 · /tle

For live sub-satellite position, see the globe view (requires WebGL).

§ Visibility from observer

Set your observer location to see the next 7 days of passes ≥ 10°. The values pass through the URL so the page stays shareable.

No JS? Fill the form by hand. The geolocation button needs JavaScript.

§ Radio — SatNOGS DB

ModeDescriptionDownlinkUplink
GMSK AIS Downlink 435.800 MHz
BPSK BPSK1k2 AX.25 TLM 435.200 MHz

2 transmitters · refreshed weekly from db.satnogs.org